Index of /20260504/WXO-DD/model_gdps/15km/00/033
Name Last modified Size Description
Parent Directory -
20260504T00Z_MSC_GDPS_AbsoluteVorticity_IsbL-0200_LatLon0.15_PT033H.grib2 2026-05-04 04:05 1.5M
20260504T00Z_MSC_GDPS_AbsoluteVorticity_IsbL-0250_LatLon0.15_PT033H.grib2 2026-05-04 04:05 1.3M
20260504T00Z_MSC_GDPS_AbsoluteVorticity_IsbL-0500_LatLon0.15_PT033H.grib2 2026-05-04 04:05 1.5M
20260504T00Z_MSC_GDPS_AbsoluteVorticity_IsbL-0700_LatLon0.15_PT033H.grib2 2026-05-04 04:05 1.6M
20260504T00Z_MSC_GDPS_AbsoluteVorticity_IsbL-0850_LatLon0.15_PT033H.grib2 2026-05-04 04:05 1.6M
20260504T00Z_MSC_GDPS_AirTemp_AGL-120m_LatLon0.15_PT033H.grib2 2026-05-04 04:05 898K
20260504T00Z_MSC_GDPS_AirTemp_AGL-2m_LatLon0.15_PT033H.grib2 2026-05-04 04:05 1.0M
20260504T00Z_MSC_GDPS_AirTemp_AGL-40m_LatLon0.15_PT033H.grib2 2026-05-04 04:05 799K
20260504T00Z_MSC_GDPS_AirTemp_AGL-80m_LatLon0.15_PT033H.grib2 2026-05-04 04:05 789K
20260504T00Z_MSC_GDPS_AirTemp_IsbL-0001_LatLon0.15_PT033H.grib2 2026-05-04 04:05 649K
20260504T00Z_MSC_GDPS_AirTemp_IsbL-0005_LatLon0.15_PT033H.grib2 2026-05-04 04:05 688K
20260504T00Z_MSC_GDPS_AirTemp_IsbL-0010_LatLon0.15_PT033H.grib2 2026-05-04 04:05 698K
20260504T00Z_MSC_GDPS_AirTemp_IsbL-0020_LatLon0.15_PT033H.grib2 2026-05-04 04:05 788K
20260504T00Z_MSC_GDPS_AirTemp_IsbL-0030_LatLon0.15_PT033H.grib2 2026-05-04 04:05 840K
20260504T00Z_MSC_GDPS_AirTemp_IsbL-0050_LatLon0.15_PT033H.grib2 2026-05-04 04:05 812K
20260504T00Z_MSC_GDPS_AirTemp_IsbL-0100_LatLon0.15_PT033H.grib2 2026-05-04 04:05 960K
20260504T00Z_MSC_GDPS_AirTemp_IsbL-0150_LatLon0.15_PT033H.grib2 2026-05-04 04:05 969K
20260504T00Z_MSC_GDPS_AirTemp_IsbL-0175_LatLon0.15_PT033H.grib2 2026-05-04 04:05 958K
20260504T00Z_MSC_GDPS_AirTemp_IsbL-0200_LatLon0.15_PT033H.grib2 2026-05-04 04:05 971K
20260504T00Z_MSC_GDPS_AirTemp_IsbL-0225_LatLon0.15_PT033H.grib2 2026-05-04 04:05 972K
20260504T00Z_MSC_GDPS_AirTemp_IsbL-0250_LatLon0.15_PT033H.grib2 2026-05-04 04:05 1.0M
20260504T00Z_MSC_GDPS_AirTemp_IsbL-0275_LatLon0.15_PT033H.grib2 2026-05-04 04:05 1.0M
20260504T00Z_MSC_GDPS_AirTemp_IsbL-0300_LatLon0.15_PT033H.grib2 2026-05-04 04:05 1.0M
20260504T00Z_MSC_GDPS_AirTemp_IsbL-0350_LatLon0.15_PT033H.grib2 2026-05-04 04:05 929K
20260504T00Z_MSC_GDPS_AirTemp_IsbL-0400_LatLon0.15_PT033H.grib2 2026-05-04 04:05 941K
20260504T00Z_MSC_GDPS_AirTemp_IsbL-0450_LatLon0.15_PT033H.grib2 2026-05-04 04:05 962K
20260504T00Z_MSC_GDPS_AirTemp_IsbL-0500_LatLon0.15_PT033H.grib2 2026-05-04 04:05 1.0M
20260504T00Z_MSC_GDPS_AirTemp_IsbL-0550_LatLon0.15_PT033H.grib2 2026-05-04 04:05 798K
20260504T00Z_MSC_GDPS_AirTemp_IsbL-0600_LatLon0.15_PT033H.grib2 2026-05-04 04:05 885K
20260504T00Z_MSC_GDPS_AirTemp_IsbL-0650_LatLon0.15_PT033H.grib2 2026-05-04 04:05 914K
20260504T00Z_MSC_GDPS_AirTemp_IsbL-0700_LatLon0.15_PT033H.grib2 2026-05-04 04:05 952K
20260504T00Z_MSC_GDPS_AirTemp_IsbL-0750_LatLon0.15_PT033H.grib2 2026-05-04 04:05 1.0M
20260504T00Z_MSC_GDPS_AirTemp_IsbL-0800_LatLon0.15_PT033H.grib2 2026-05-04 04:05 1.1M
20260504T00Z_MSC_GDPS_AirTemp_IsbL-0850_LatLon0.15_PT033H.grib2 2026-05-04 04:05 1.1M
20260504T00Z_MSC_GDPS_AirTemp_IsbL-0875_LatLon0.15_PT033H.grib2 2026-05-04 04:05 1.2M
20260504T00Z_MSC_GDPS_AirTemp_IsbL-0900_LatLon0.15_PT033H.grib2 2026-05-04 04:05 1.1M
20260504T00Z_MSC_GDPS_AirTemp_IsbL-0925_LatLon0.15_PT033H.grib2 2026-05-04 04:05 1.1M
20260504T00Z_MSC_GDPS_AirTemp_IsbL-0950_LatLon0.15_PT033H.grib2 2026-05-04 04:05 1.1M
20260504T00Z_MSC_GDPS_AirTemp_IsbL-0970_LatLon0.15_PT033H.grib2 2026-05-04 04:05 1.1M
20260504T00Z_MSC_GDPS_AirTemp_IsbL-0985_LatLon0.15_PT033H.grib2 2026-05-04 04:05 1.1M
20260504T00Z_MSC_GDPS_AirTemp_IsbL-1000_LatLon0.15_PT033H.grib2 2026-05-04 04:05 1.1M
20260504T00Z_MSC_GDPS_AirTemp_IsbL-1015_LatLon0.15_PT033H.grib2 2026-05-04 04:05 1.1M
20260504T00Z_MSC_GDPS_Albedo_Sfc_LatLon0.15_PT033H.grib2 2026-05-04 04:05 241K
20260504T00Z_MSC_GDPS_CAPE_Sfc_LatLon0.15_PT033H.grib2 2026-05-04 04:05 4.2M
20260504T00Z_MSC_GDPS_CIN_Sfc_LatLon0.15_PT033H.grib2 2026-05-04 04:05 2.9M
20260504T00Z_MSC_GDPS_CloudWater_EAtm_LatLon0.15_PT033H.grib2 2026-05-04 04:05 529K
20260504T00Z_MSC_GDPS_ConvectivePrecip-Accum_Sfc_LatLon0.15_PT033H.grib2 2026-05-04 04:05 2.6M
20260504T00Z_MSC_GDPS_DewPointDepression_AGL-2m_LatLon0.15_PT033H.grib2 2026-05-04 04:05 765K
20260504T00Z_MSC_GDPS_DewPointDepression_IsbL-0010_LatLon0.15_PT033H.grib2 2026-05-04 04:05 78K
20260504T00Z_MSC_GDPS_DewPointDepression_IsbL-0020_LatLon0.15_PT033H.grib2 2026-05-04 04:05 72K
20260504T00Z_MSC_GDPS_DewPointDepression_IsbL-0030_LatLon0.15_PT033H.grib2 2026-05-04 04:05 88K
20260504T00Z_MSC_GDPS_DewPointDepression_IsbL-0050_LatLon0.15_PT033H.grib2 2026-05-04 04:05 385K
20260504T00Z_MSC_GDPS_DewPointDepression_IsbL-0100_LatLon0.15_PT033H.grib2 2026-05-04 04:05 407K
20260504T00Z_MSC_GDPS_DewPointDepression_IsbL-0150_LatLon0.15_PT033H.grib2 2026-05-04 04:05 480K
20260504T00Z_MSC_GDPS_DewPointDepression_IsbL-0175_LatLon0.15_PT033H.grib2 2026-05-04 04:05 586K
20260504T00Z_MSC_GDPS_DewPointDepression_IsbL-0200_LatLon0.15_PT033H.grib2 2026-05-04 04:05 683K
20260504T00Z_MSC_GDPS_DewPointDepression_IsbL-0225_LatLon0.15_PT033H.grib2 2026-05-04 04:05 780K
20260504T00Z_MSC_GDPS_DewPointDepression_IsbL-0250_LatLon0.15_PT033H.grib2 2026-05-04 04:05 867K
20260504T00Z_MSC_GDPS_DewPointDepression_IsbL-0275_LatLon0.15_PT033H.grib2 2026-05-04 04:05 888K
20260504T00Z_MSC_GDPS_DewPointDepression_IsbL-0300_LatLon0.15_PT033H.grib2 2026-05-04 04:05 931K
20260504T00Z_MSC_GDPS_DewPointDepression_IsbL-0350_LatLon0.15_PT033H.grib2 2026-05-04 04:05 957K
20260504T00Z_MSC_GDPS_DewPointDepression_IsbL-0400_LatLon0.15_PT033H.grib2 2026-05-04 04:05 1.0M
20260504T00Z_MSC_GDPS_DewPointDepression_IsbL-0450_LatLon0.15_PT033H.grib2 2026-05-04 04:05 1.0M
20260504T00Z_MSC_GDPS_DewPointDepression_IsbL-0500_LatLon0.15_PT033H.grib2 2026-05-04 04:05 1.0M
20260504T00Z_MSC_GDPS_DewPointDepression_IsbL-0550_LatLon0.15_PT033H.grib2 2026-05-04 04:05 1.0M
20260504T00Z_MSC_GDPS_DewPointDepression_IsbL-0600_LatLon0.15_PT033H.grib2 2026-05-04 04:05 1.0M
20260504T00Z_MSC_GDPS_DewPointDepression_IsbL-0650_LatLon0.15_PT033H.grib2 2026-05-04 04:05 1.0M
20260504T00Z_MSC_GDPS_DewPointDepression_IsbL-0700_LatLon0.15_PT033H.grib2 2026-05-04 04:05 1.1M
20260504T00Z_MSC_GDPS_DewPointDepression_IsbL-0750_LatLon0.15_PT033H.grib2 2026-05-04 04:05 1.1M
20260504T00Z_MSC_GDPS_DewPointDepression_IsbL-0800_LatLon0.15_PT033H.grib2 2026-05-04 04:05 1.1M
20260504T00Z_MSC_GDPS_DewPointDepression_IsbL-0850_LatLon0.15_PT033H.grib2 2026-05-04 04:05 1.1M
20260504T00Z_MSC_GDPS_DewPointDepression_IsbL-0875_LatLon0.15_PT033H.grib2 2026-05-04 04:05 1.1M
20260504T00Z_MSC_GDPS_DewPointDepression_IsbL-0900_LatLon0.15_PT033H.grib2 2026-05-04 04:05 1.0M
20260504T00Z_MSC_GDPS_DewPointDepression_IsbL-0925_LatLon0.15_PT033H.grib2 2026-05-04 04:05 1.0M
20260504T00Z_MSC_GDPS_DewPointDepression_IsbL-0950_LatLon0.15_PT033H.grib2 2026-05-04 04:05 1.0M
20260504T00Z_MSC_GDPS_DewPointDepression_IsbL-0970_LatLon0.15_PT033H.grib2 2026-05-04 04:05 1.0M
20260504T00Z_MSC_GDPS_DewPointDepression_IsbL-0985_LatLon0.15_PT033H.grib2 2026-05-04 04:05 1.0M
20260504T00Z_MSC_GDPS_DewPointDepression_IsbL-1000_LatLon0.15_PT033H.grib2 2026-05-04 04:05 966K
20260504T00Z_MSC_GDPS_DewPointDepression_IsbL-1015_LatLon0.15_PT033H.grib2 2026-05-04 04:05 913K
20260504T00Z_MSC_GDPS_DewPoint_AGL-2m_LatLon0.15_PT033H.grib2 2026-05-04 04:05 605K
20260504T00Z_MSC_GDPS_DownwardLongwaveRadiationFlux-Accum_Sfc_LatLon0.15_PT033H.grib2 2026-05-04 04:05 774K
20260504T00Z_MSC_GDPS_DownwardShortwaveRadiationFlux-Accum_NTAtm_LatLon0.15_PT033H.grib2 2026-05-04 04:05 279K
20260504T00Z_MSC_GDPS_DownwardShortwaveRadiationFlux-Accum_Sfc_LatLon0.15_PT033H.grib2 2026-05-04 04:05 918K
20260504T00Z_MSC_GDPS_FreezingRain-Accum1h_Sfc_LatLon0.15_PT033H.grib2 2026-05-04 04:05 40K
20260504T00Z_MSC_GDPS_FreezingRain-Accum3h_Sfc_LatLon0.15_PT033H.grib2 2026-05-04 04:05 44K
20260504T00Z_MSC_GDPS_FreezingRain-Accum_Sfc_LatLon0.15_PT033H.grib2 2026-05-04 04:05 164K
20260504T00Z_MSC_GDPS_GeopotentialHeight_IsbL-0001_LatLon0.15_PT033H.grib2 2026-05-04 04:05 428K
20260504T00Z_MSC_GDPS_GeopotentialHeight_IsbL-0005_LatLon0.15_PT033H.grib2 2026-05-04 04:05 483K
20260504T00Z_MSC_GDPS_GeopotentialHeight_IsbL-0010_LatLon0.15_PT033H.grib2 2026-05-04 04:05 470K
20260504T00Z_MSC_GDPS_GeopotentialHeight_IsbL-0020_LatLon0.15_PT033H.grib2 2026-05-04 04:05 413K
20260504T00Z_MSC_GDPS_GeopotentialHeight_IsbL-0030_LatLon0.15_PT033H.grib2 2026-05-04 04:05 570K
20260504T00Z_MSC_GDPS_GeopotentialHeight_IsbL-0050_LatLon0.15_PT033H.grib2 2026-05-04 04:05 570K
20260504T00Z_MSC_GDPS_GeopotentialHeight_IsbL-0100_LatLon0.15_PT033H.grib2 2026-05-04 04:05 608K
20260504T00Z_MSC_GDPS_GeopotentialHeight_IsbL-0150_LatLon0.15_PT033H.grib2 2026-05-04 04:05 625K
20260504T00Z_MSC_GDPS_GeopotentialHeight_IsbL-0175_LatLon0.15_PT033H.grib2 2026-05-04 04:05 629K
20260504T00Z_MSC_GDPS_GeopotentialHeight_IsbL-0200_LatLon0.15_PT033H.grib2 2026-05-04 04:05 635K
20260504T00Z_MSC_GDPS_GeopotentialHeight_IsbL-0225_LatLon0.15_PT033H.grib2 2026-05-04 04:05 634K
20260504T00Z_MSC_GDPS_GeopotentialHeight_IsbL-0250_LatLon0.15_PT033H.grib2 2026-05-04 04:05 643K
20260504T00Z_MSC_GDPS_GeopotentialHeight_IsbL-0275_LatLon0.15_PT033H.grib2 2026-05-04 04:05 642K
20260504T00Z_MSC_GDPS_GeopotentialHeight_IsbL-0300_LatLon0.15_PT033H.grib2 2026-05-04 04:05 634K
20260504T00Z_MSC_GDPS_GeopotentialHeight_IsbL-0350_LatLon0.15_PT033H.grib2 2026-05-04 04:05 631K
20260504T00Z_MSC_GDPS_GeopotentialHeight_IsbL-0400_LatLon0.15_PT033H.grib2 2026-05-04 04:05 622K
20260504T00Z_MSC_GDPS_GeopotentialHeight_IsbL-0450_LatLon0.15_PT033H.grib2 2026-05-04 04:05 612K
20260504T00Z_MSC_GDPS_GeopotentialHeight_IsbL-0500_LatLon0.15_PT033H.grib2 2026-05-04 04:05 534K
20260504T00Z_MSC_GDPS_GeopotentialHeight_IsbL-0550_LatLon0.15_PT033H.grib2 2026-05-04 04:05 526K
20260504T00Z_MSC_GDPS_GeopotentialHeight_IsbL-0600_LatLon0.15_PT033H.grib2 2026-05-04 04:05 525K
20260504T00Z_MSC_GDPS_GeopotentialHeight_IsbL-0650_LatLon0.15_PT033H.grib2 2026-05-04 04:05 692K
20260504T00Z_MSC_GDPS_GeopotentialHeight_IsbL-0700_LatLon0.15_PT033H.grib2 2026-05-04 04:05 688K
20260504T00Z_MSC_GDPS_GeopotentialHeight_IsbL-0750_LatLon0.15_PT033H.grib2 2026-05-04 04:05 694K
20260504T00Z_MSC_GDPS_GeopotentialHeight_IsbL-0800_LatLon0.15_PT033H.grib2 2026-05-04 04:05 710K
20260504T00Z_MSC_GDPS_GeopotentialHeight_IsbL-0850_LatLon0.15_PT033H.grib2 2026-05-04 04:05 722K
20260504T00Z_MSC_GDPS_GeopotentialHeight_IsbL-0875_LatLon0.15_PT033H.grib2 2026-05-04 04:05 722K
20260504T00Z_MSC_GDPS_GeopotentialHeight_IsbL-0900_LatLon0.15_PT033H.grib2 2026-05-04 04:05 728K
20260504T00Z_MSC_GDPS_GeopotentialHeight_IsbL-0925_LatLon0.15_PT033H.grib2 2026-05-04 04:05 737K
20260504T00Z_MSC_GDPS_GeopotentialHeight_IsbL-0950_LatLon0.15_PT033H.grib2 2026-05-04 04:05 744K
20260504T00Z_MSC_GDPS_GeopotentialHeight_IsbL-0970_LatLon0.15_PT033H.grib2 2026-05-04 04:05 755K
20260504T00Z_MSC_GDPS_GeopotentialHeight_IsbL-0985_LatLon0.15_PT033H.grib2 2026-05-04 04:05 769K
20260504T00Z_MSC_GDPS_GeopotentialHeight_IsbL-1000_LatLon0.15_PT033H.grib2 2026-05-04 04:05 788K
20260504T00Z_MSC_GDPS_GeopotentialHeight_IsbL-1015_LatLon0.15_PT033H.grib2 2026-05-04 04:05 810K
20260504T00Z_MSC_GDPS_Humidex_Sfc_LatLon0.15_PT033H.grib2 2026-05-04 04:05 5.3M
20260504T00Z_MSC_GDPS_IcePellets-Accum1h_Sfc_LatLon0.15_PT033H.grib2 2026-05-04 04:05 15K
20260504T00Z_MSC_GDPS_IcePellets-Accum3h_Sfc_LatLon0.15_PT033H.grib2 2026-05-04 04:05 16K
20260504T00Z_MSC_GDPS_IcePellets-Accum_Sfc_LatLon0.15_PT033H.grib2 2026-05-04 04:05 53K
20260504T00Z_MSC_GDPS_KIndex_Sfc_LatLon0.15_PT033H.grib2 2026-05-04 04:05 6.5M
20260504T00Z_MSC_GDPS_LatentHeatNetFlux_Sfc_LatLon0.15_PT033H.grib2 2026-05-04 04:05 563K
20260504T00Z_MSC_GDPS_LiftedIndex-MU-VT_IsbL-0500_LatLon0.15_PT033H.grib2 2026-05-04 04:05 5.4M
20260504T00Z_MSC_GDPS_NetLongwaveRadiationFlux-Accum_Sfc_LatLon0.15_PT033H.grib2 2026-05-04 04:05 1.0M
20260504T00Z_MSC_GDPS_NetShortwaveRadiationFlux-Accum_Sfc_LatLon0.15_PT033H.grib2 2026-05-04 04:05 893K
20260504T00Z_MSC_GDPS_O3MixingRatio_Sfc_LatLon0.15_PT033H.grib2 2026-05-04 04:52 2.0M
20260504T00Z_MSC_GDPS_O3_EAtm_LatLon0.15_PT033H.grib2 2026-05-04 04:52 2.5M
20260504T00Z_MSC_GDPS_PlanetaryBoundaryLayerHeight_Sfc_LatLon0.15_PT033H.grib2 2026-05-04 04:05 2.5M
20260504T00Z_MSC_GDPS_Precip-Accum1h_Sfc_LatLon0.15_PT033H.grib2 2026-05-04 04:05 3.2M
20260504T00Z_MSC_GDPS_Precip-Accum3h_Sfc_LatLon0.15_PT033H.grib2 2026-05-04 04:05 3.5M
20260504T00Z_MSC_GDPS_Precip-Accum_Sfc_LatLon0.15_PT033H.grib2 2026-05-04 04:05 4.6M
20260504T00Z_MSC_GDPS_PrecipRate_Sfc_LatLon0.15_PT033H.grib2 2026-05-04 04:05 3.1M
20260504T00Z_MSC_GDPS_PrecipType-Instant_Sfc_LatLon0.15_PT033H.grib2 2026-05-04 04:05 1.6M
20260504T00Z_MSC_GDPS_Pressure_MSL_LatLon0.15_PT033H.grib2 2026-05-04 04:05 819K
20260504T00Z_MSC_GDPS_Pressure_PVU-1.5_LatLon0.15_PT033H.grib2 2026-05-04 04:05 5.8M
20260504T00Z_MSC_GDPS_Pressure_PVU-1_LatLon0.15_PT033H.grib2 2026-05-04 04:05 6.0M
20260504T00Z_MSC_GDPS_Pressure_PVU-2_LatLon0.15_PT033H.grib2 2026-05-04 04:05 6.0M
20260504T00Z_MSC_GDPS_Pressure_Sfc_LatLon0.15_PT033H.grib2 2026-05-04 04:05 1.1M
20260504T00Z_MSC_GDPS_RadiativeTemp_Sfc_LatLon0.15_PT033H.grib2 2026-05-04 04:05 497K
20260504T00Z_MSC_GDPS_Rain-Accum1h_Sfc_LatLon0.15_PT033H.grib2 2026-05-04 04:05 1.7M
20260504T00Z_MSC_GDPS_Rain-Accum3h_Sfc_LatLon0.15_PT033H.grib2 2026-05-04 04:05 1.8M
20260504T00Z_MSC_GDPS_Rain-Accum_Sfc_LatLon0.15_PT033H.grib2 2026-05-04 04:05 3.4M
20260504T00Z_MSC_GDPS_RelativeHumidity_AGL-2m_LatLon0.15_PT033H.grib2 2026-05-04 04:05 1.1M
20260504T00Z_MSC_GDPS_RelativeHumidity_IsbL-0010_LatLon0.15_PT033H.grib2 2026-05-04 04:05 213K
20260504T00Z_MSC_GDPS_RelativeHumidity_IsbL-0020_LatLon0.15_PT033H.grib2 2026-05-04 04:05 175K
20260504T00Z_MSC_GDPS_RelativeHumidity_IsbL-0030_LatLon0.15_PT033H.grib2 2026-05-04 04:05 275K
20260504T00Z_MSC_GDPS_RelativeHumidity_IsbL-0050_LatLon0.15_PT033H.grib2 2026-05-04 04:05 526K
20260504T00Z_MSC_GDPS_RelativeHumidity_IsbL-0100_LatLon0.15_PT033H.grib2 2026-05-04 04:05 514K
20260504T00Z_MSC_GDPS_RelativeHumidity_IsbL-0150_LatLon0.15_PT033H.grib2 2026-05-04 04:05 667K
20260504T00Z_MSC_GDPS_RelativeHumidity_IsbL-0175_LatLon0.15_PT033H.grib2 2026-05-04 04:05 797K
20260504T00Z_MSC_GDPS_RelativeHumidity_IsbL-0200_LatLon0.15_PT033H.grib2 2026-05-04 04:05 704K
20260504T00Z_MSC_GDPS_RelativeHumidity_IsbL-0225_LatLon0.15_PT033H.grib2 2026-05-04 04:05 786K
20260504T00Z_MSC_GDPS_RelativeHumidity_IsbL-0250_LatLon0.15_PT033H.grib2 2026-05-04 04:05 862K
20260504T00Z_MSC_GDPS_RelativeHumidity_IsbL-0275_LatLon0.15_PT033H.grib2 2026-05-04 04:05 887K
20260504T00Z_MSC_GDPS_RelativeHumidity_IsbL-0300_LatLon0.15_PT033H.grib2 2026-05-04 04:05 931K
20260504T00Z_MSC_GDPS_RelativeHumidity_IsbL-0350_LatLon0.15_PT033H.grib2 2026-05-04 04:05 950K
20260504T00Z_MSC_GDPS_RelativeHumidity_IsbL-0400_LatLon0.15_PT033H.grib2 2026-05-04 04:05 1.0M
20260504T00Z_MSC_GDPS_RelativeHumidity_IsbL-0450_LatLon0.15_PT033H.grib2 2026-05-04 04:05 1.0M
20260504T00Z_MSC_GDPS_RelativeHumidity_IsbL-0500_LatLon0.15_PT033H.grib2 2026-05-04 04:05 1.0M
20260504T00Z_MSC_GDPS_RelativeHumidity_IsbL-0550_LatLon0.15_PT033H.grib2 2026-05-04 04:05 1.1M
20260504T00Z_MSC_GDPS_RelativeHumidity_IsbL-0600_LatLon0.15_PT033H.grib2 2026-05-04 04:05 1.1M
20260504T00Z_MSC_GDPS_RelativeHumidity_IsbL-0650_LatLon0.15_PT033H.grib2 2026-05-04 04:05 1.1M
20260504T00Z_MSC_GDPS_RelativeHumidity_IsbL-0700_LatLon0.15_PT033H.grib2 2026-05-04 04:05 1.1M
20260504T00Z_MSC_GDPS_RelativeHumidity_IsbL-0750_LatLon0.15_PT033H.grib2 2026-05-04 04:05 1.2M
20260504T00Z_MSC_GDPS_RelativeHumidity_IsbL-0800_LatLon0.15_PT033H.grib2 2026-05-04 04:05 1.2M
20260504T00Z_MSC_GDPS_RelativeHumidity_IsbL-0850_LatLon0.15_PT033H.grib2 2026-05-04 04:05 1.3M
20260504T00Z_MSC_GDPS_RelativeHumidity_IsbL-0875_LatLon0.15_PT033H.grib2 2026-05-04 04:05 1.3M
20260504T00Z_MSC_GDPS_RelativeHumidity_IsbL-0900_LatLon0.15_PT033H.grib2 2026-05-04 04:05 1.3M
20260504T00Z_MSC_GDPS_RelativeHumidity_IsbL-0925_LatLon0.15_PT033H.grib2 2026-05-04 04:05 1.2M
20260504T00Z_MSC_GDPS_RelativeHumidity_IsbL-0950_LatLon0.15_PT033H.grib2 2026-05-04 04:05 1.2M
20260504T00Z_MSC_GDPS_RelativeHumidity_IsbL-0970_LatLon0.15_PT033H.grib2 2026-05-04 04:05 1.2M
20260504T00Z_MSC_GDPS_RelativeHumidity_IsbL-0985_LatLon0.15_PT033H.grib2 2026-05-04 04:05 1.1M
20260504T00Z_MSC_GDPS_RelativeHumidity_IsbL-1000_LatLon0.15_PT033H.grib2 2026-05-04 04:05 1.1M
20260504T00Z_MSC_GDPS_RelativeHumidity_IsbL-1015_LatLon0.15_PT033H.grib2 2026-05-04 04:05 1.0M
20260504T00Z_MSC_GDPS_RelativeVorticity_IsbL-0200_LatLon0.15_PT033H.grib2 2026-05-04 04:05 1.5M
20260504T00Z_MSC_GDPS_RelativeVorticity_IsbL-0250_LatLon0.15_PT033H.grib2 2026-05-04 04:05 1.3M
20260504T00Z_MSC_GDPS_RelativeVorticity_IsbL-0500_LatLon0.15_PT033H.grib2 2026-05-04 04:05 1.5M
20260504T00Z_MSC_GDPS_RelativeVorticity_IsbL-0700_LatLon0.15_PT033H.grib2 2026-05-04 04:05 1.6M
20260504T00Z_MSC_GDPS_RelativeVorticity_IsbL-0850_LatLon0.15_PT033H.grib2 2026-05-04 04:05 1.6M
20260504T00Z_MSC_GDPS_Runoff-Accum_Sfc_LatLon0.15_PT033H.grib2 2026-05-04 04:05 100K
20260504T00Z_MSC_GDPS_SensibleHeatNetFlux_Sfc_LatLon0.15_PT033H.grib2 2026-05-04 04:05 672K
20260504T00Z_MSC_GDPS_ShowalterIndex_IsbL-0500_LatLon0.15_PT033H.grib2 2026-05-04 04:05 6.2M
20260504T00Z_MSC_GDPS_Snow-Accum1h_Sfc_LatLon0.15_PT033H.grib2 2026-05-04 04:05 1.1M
20260504T00Z_MSC_GDPS_Snow-Accum3h_Sfc_LatLon0.15_PT033H.grib2 2026-05-04 04:05 1.0M
20260504T00Z_MSC_GDPS_Snow-Accum_Sfc_LatLon0.15_PT033H.grib2 2026-05-04 04:05 1.7M
20260504T00Z_MSC_GDPS_SnowDensity_Sfc_LatLon0.15_PT033H.grib2 2026-05-04 04:05 252K
20260504T00Z_MSC_GDPS_SnowDepth_Sfc_LatLon0.15_PT033H.grib2 2026-05-04 04:05 1.7M
20260504T00Z_MSC_GDPS_SoilTemp_DBS-0to10cm_LatLon0.15_PT033H.grib2 2026-05-04 04:05 502K
20260504T00Z_MSC_GDPS_SoilTemp_Sfc_LatLon0.15_PT033H.grib2 2026-05-04 04:05 588K
20260504T00Z_MSC_GDPS_SoilVolumetricIceContent_Sfc_LatLon0.15_PT033H.grib2 2026-05-04 04:05 192K
20260504T00Z_MSC_GDPS_SoilVolumetricWaterContent_DBS-0to10cm_LatLon0.15_PT033H.grib2 2026-05-04 04:05 590K
20260504T00Z_MSC_GDPS_SoilVolumetricWaterContent_DBS-0to1cm_LatLon0.15_PT033H.grib2 2026-05-04 04:05 650K
20260504T00Z_MSC_GDPS_SpecificHumidity_AGL-120m_LatLon0.15_PT033H.grib2 2026-05-04 04:05 1.1M
20260504T00Z_MSC_GDPS_SpecificHumidity_AGL-2m_LatLon0.15_PT033H.grib2 2026-05-04 04:05 1.2M
20260504T00Z_MSC_GDPS_SpecificHumidity_AGL-40m_LatLon0.15_PT033H.grib2 2026-05-04 04:05 1.1M
20260504T00Z_MSC_GDPS_SpecificHumidity_AGL-80m_LatLon0.15_PT033H.grib2 2026-05-04 04:05 1.1M
20260504T00Z_MSC_GDPS_SpecificHumidity_IsbL-0001_LatLon0.15_PT033H.grib2 2026-05-04 04:05 1.1M
20260504T00Z_MSC_GDPS_SpecificHumidity_IsbL-0005_LatLon0.15_PT033H.grib2 2026-05-04 04:05 1.3M
20260504T00Z_MSC_GDPS_SpecificHumidity_IsbL-0010_LatLon0.15_PT033H.grib2 2026-05-04 04:05 1.4M
20260504T00Z_MSC_GDPS_SpecificHumidity_IsbL-0020_LatLon0.15_PT033H.grib2 2026-05-04 04:05 1.4M
20260504T00Z_MSC_GDPS_SpecificHumidity_IsbL-0030_LatLon0.15_PT033H.grib2 2026-05-04 04:05 1.4M
20260504T00Z_MSC_GDPS_SpecificHumidity_IsbL-0050_LatLon0.15_PT033H.grib2 2026-05-04 04:05 1.4M
20260504T00Z_MSC_GDPS_SpecificHumidity_IsbL-0100_LatLon0.15_PT033H.grib2 2026-05-04 04:05 1.4M
20260504T00Z_MSC_GDPS_SpecificHumidity_IsbL-0150_LatLon0.15_PT033H.grib2 2026-05-04 04:05 1.3M
20260504T00Z_MSC_GDPS_SpecificHumidity_IsbL-0175_LatLon0.15_PT033H.grib2 2026-05-04 04:05 1.3M
20260504T00Z_MSC_GDPS_SpecificHumidity_IsbL-0200_LatLon0.15_PT033H.grib2 2026-05-04 04:05 1.3M
20260504T00Z_MSC_GDPS_SpecificHumidity_IsbL-0225_LatLon0.15_PT033H.grib2 2026-05-04 04:05 1.3M
20260504T00Z_MSC_GDPS_SpecificHumidity_IsbL-0250_LatLon0.15_PT033H.grib2 2026-05-04 04:05 1.4M
20260504T00Z_MSC_GDPS_SpecificHumidity_IsbL-0275_LatLon0.15_PT033H.grib2 2026-05-04 04:05 1.3M
20260504T00Z_MSC_GDPS_SpecificHumidity_IsbL-0300_LatLon0.15_PT033H.grib2 2026-05-04 04:05 1.2M
20260504T00Z_MSC_GDPS_SpecificHumidity_IsbL-0350_LatLon0.15_PT033H.grib2 2026-05-04 04:05 1.2M
20260504T00Z_MSC_GDPS_SpecificHumidity_IsbL-0400_LatLon0.15_PT033H.grib2 2026-05-04 04:05 1.5M
20260504T00Z_MSC_GDPS_SpecificHumidity_IsbL-0450_LatLon0.15_PT033H.grib2 2026-05-04 04:05 1.6M
20260504T00Z_MSC_GDPS_SpecificHumidity_IsbL-0500_LatLon0.15_PT033H.grib2 2026-05-04 04:05 1.4M
20260504T00Z_MSC_GDPS_SpecificHumidity_IsbL-0550_LatLon0.15_PT033H.grib2 2026-05-04 04:05 1.6M
20260504T00Z_MSC_GDPS_SpecificHumidity_IsbL-0600_LatLon0.15_PT033H.grib2 2026-05-04 04:05 1.7M
20260504T00Z_MSC_GDPS_SpecificHumidity_IsbL-0650_LatLon0.15_PT033H.grib2 2026-05-04 04:05 1.5M
20260504T00Z_MSC_GDPS_SpecificHumidity_IsbL-0700_LatLon0.15_PT033H.grib2 2026-05-04 04:05 1.6M
20260504T00Z_MSC_GDPS_SpecificHumidity_IsbL-0750_LatLon0.15_PT033H.grib2 2026-05-04 04:05 1.7M
20260504T00Z_MSC_GDPS_SpecificHumidity_IsbL-0800_LatLon0.15_PT033H.grib2 2026-05-04 04:05 1.8M
20260504T00Z_MSC_GDPS_SpecificHumidity_IsbL-0850_LatLon0.15_PT033H.grib2 2026-05-04 04:05 1.9M
20260504T00Z_MSC_GDPS_SpecificHumidity_IsbL-0875_LatLon0.15_PT033H.grib2 2026-05-04 04:05 1.9M
20260504T00Z_MSC_GDPS_SpecificHumidity_IsbL-0900_LatLon0.15_PT033H.grib2 2026-05-04 04:05 1.6M
20260504T00Z_MSC_GDPS_SpecificHumidity_IsbL-0925_LatLon0.15_PT033H.grib2 2026-05-04 04:05 1.6M
20260504T00Z_MSC_GDPS_SpecificHumidity_IsbL-0950_LatLon0.15_PT033H.grib2 2026-05-04 04:05 1.5M
20260504T00Z_MSC_GDPS_SpecificHumidity_IsbL-0970_LatLon0.15_PT033H.grib2 2026-05-04 04:05 1.5M
20260504T00Z_MSC_GDPS_SpecificHumidity_IsbL-0985_LatLon0.15_PT033H.grib2 2026-05-04 04:05 1.5M
20260504T00Z_MSC_GDPS_SpecificHumidity_IsbL-1000_LatLon0.15_PT033H.grib2 2026-05-04 04:05 1.5M
20260504T00Z_MSC_GDPS_SpecificHumidity_IsbL-1015_LatLon0.15_PT033H.grib2 2026-05-04 04:05 1.5M
20260504T00Z_MSC_GDPS_SpecificHumidity_Sfc_LatLon0.15_PT033H.grib2 2026-05-04 04:05 675K
20260504T00Z_MSC_GDPS_Thickness_IsbL-0850to0700_LatLon0.15_PT033H.grib2 2026-05-04 04:05 468K
20260504T00Z_MSC_GDPS_Thickness_IsbL-1000to0500_LatLon0.15_PT033H.grib2 2026-05-04 04:05 374K
20260504T00Z_MSC_GDPS_Thickness_IsbL-1000to0850_LatLon0.15_PT033H.grib2 2026-05-04 04:05 491K
20260504T00Z_MSC_GDPS_TotalCloudCover_Sfc_LatLon0.15_PT033H.grib2 2026-05-04 04:05 824K
20260504T00Z_MSC_GDPS_TotalTotalsIndex_Sfc_LatLon0.15_PT033H.grib2 2026-05-04 04:05 6.2M
20260504T00Z_MSC_GDPS_UVIndex-ClearSky_Sfc_LatLon0.15_PT033H.grib2 2026-05-04 04:52 1.1M
20260504T00Z_MSC_GDPS_UVIndex_Sfc_LatLon0.15_PT033H.grib2 2026-05-04 04:52 1.5M
20260504T00Z_MSC_GDPS_UpwardLongwaveRadiationFlux_NTAtm_LatLon0.15_PT033H.grib2 2026-05-04 04:05 835K
20260504T00Z_MSC_GDPS_VerticalVelocity_IsbL-0200_LatLon0.15_PT033H.grib2 2026-05-04 04:05 1.2M
20260504T00Z_MSC_GDPS_VerticalVelocity_IsbL-0250_LatLon0.15_PT033H.grib2 2026-05-04 04:05 1.0M
20260504T00Z_MSC_GDPS_VerticalVelocity_IsbL-0500_LatLon0.15_PT033H.grib2 2026-05-04 04:05 1.0M
20260504T00Z_MSC_GDPS_VerticalVelocity_IsbL-0600_LatLon0.15_PT033H.grib2 2026-05-04 04:05 1.1M
20260504T00Z_MSC_GDPS_VerticalVelocity_IsbL-0700_LatLon0.15_PT033H.grib2 2026-05-04 04:05 1.1M
20260504T00Z_MSC_GDPS_VerticalVelocity_IsbL-0850_LatLon0.15_PT033H.grib2 2026-05-04 04:05 1.3M
20260504T00Z_MSC_GDPS_WindChill_Sfc_LatLon0.15_PT033H.grib2 2026-05-04 04:05 5.3M
20260504T00Z_MSC_GDPS_WindDir_AGL-10m_LatLon0.15_PT033H.grib2 2026-05-04 04:05 1.3M
20260504T00Z_MSC_GDPS_WindDir_AGL-120m_LatLon0.15_PT033H.grib2 2026-05-04 04:05 1.3M
20260504T00Z_MSC_GDPS_WindDir_AGL-40m_LatLon0.15_PT033H.grib2 2026-05-04 04:05 1.4M
20260504T00Z_MSC_GDPS_WindDir_AGL-80m_LatLon0.15_PT033H.grib2 2026-05-04 04:05 1.3M
20260504T00Z_MSC_GDPS_WindDir_IsbL-0001_LatLon0.15_PT033H.grib2 2026-05-04 04:05 674K
20260504T00Z_MSC_GDPS_WindDir_IsbL-0005_LatLon0.15_PT033H.grib2 2026-05-04 04:05 832K
20260504T00Z_MSC_GDPS_WindDir_IsbL-0010_LatLon0.15_PT033H.grib2 2026-05-04 04:05 850K
20260504T00Z_MSC_GDPS_WindDir_IsbL-0020_LatLon0.15_PT033H.grib2 2026-05-04 04:05 946K
20260504T00Z_MSC_GDPS_WindDir_IsbL-0030_LatLon0.15_PT033H.grib2 2026-05-04 04:05 952K
20260504T00Z_MSC_GDPS_WindDir_IsbL-0050_LatLon0.15_PT033H.grib2 2026-05-04 04:05 954K
20260504T00Z_MSC_GDPS_WindDir_IsbL-0100_LatLon0.15_PT033H.grib2 2026-05-04 04:05 1.0M
20260504T00Z_MSC_GDPS_WindDir_IsbL-0150_LatLon0.15_PT033H.grib2 2026-05-04 04:05 1.0M
20260504T00Z_MSC_GDPS_WindDir_IsbL-0175_LatLon0.15_PT033H.grib2 2026-05-04 04:05 1.1M
20260504T00Z_MSC_GDPS_WindDir_IsbL-0200_LatLon0.15_PT033H.grib2 2026-05-04 04:05 1.1M
20260504T00Z_MSC_GDPS_WindDir_IsbL-0225_LatLon0.15_PT033H.grib2 2026-05-04 04:05 1.1M
20260504T00Z_MSC_GDPS_WindDir_IsbL-0250_LatLon0.15_PT033H.grib2 2026-05-04 04:05 1.1M
20260504T00Z_MSC_GDPS_WindDir_IsbL-0275_LatLon0.15_PT033H.grib2 2026-05-04 04:05 1.2M
20260504T00Z_MSC_GDPS_WindDir_IsbL-0300_LatLon0.15_PT033H.grib2 2026-05-04 04:05 1.2M
20260504T00Z_MSC_GDPS_WindDir_IsbL-0350_LatLon0.15_PT033H.grib2 2026-05-04 04:05 1.2M
20260504T00Z_MSC_GDPS_WindDir_IsbL-0400_LatLon0.15_PT033H.grib2 2026-05-04 04:05 1.3M
20260504T00Z_MSC_GDPS_WindDir_IsbL-0450_LatLon0.15_PT033H.grib2 2026-05-04 04:05 1.3M
20260504T00Z_MSC_GDPS_WindDir_IsbL-0500_LatLon0.15_PT033H.grib2 2026-05-04 04:05 1.3M
20260504T00Z_MSC_GDPS_WindDir_IsbL-0550_LatLon0.15_PT033H.grib2 2026-05-04 04:05 1.4M
20260504T00Z_MSC_GDPS_WindDir_IsbL-0600_LatLon0.15_PT033H.grib2 2026-05-04 04:05 1.4M
20260504T00Z_MSC_GDPS_WindDir_IsbL-0650_LatLon0.15_PT033H.grib2 2026-05-04 04:05 1.5M
20260504T00Z_MSC_GDPS_WindDir_IsbL-0700_LatLon0.15_PT033H.grib2 2026-05-04 04:05 1.6M
20260504T00Z_MSC_GDPS_WindDir_IsbL-0750_LatLon0.15_PT033H.grib2 2026-05-04 04:05 1.7M
20260504T00Z_MSC_GDPS_WindDir_IsbL-0800_LatLon0.15_PT033H.grib2 2026-05-04 04:05 1.8M
20260504T00Z_MSC_GDPS_WindDir_IsbL-0850_LatLon0.15_PT033H.grib2 2026-05-04 04:05 1.9M
20260504T00Z_MSC_GDPS_WindDir_IsbL-0875_LatLon0.15_PT033H.grib2 2026-05-04 04:05 1.9M
20260504T00Z_MSC_GDPS_WindDir_IsbL-0900_LatLon0.15_PT033H.grib2 2026-05-04 04:05 1.9M
20260504T00Z_MSC_GDPS_WindDir_IsbL-0925_LatLon0.15_PT033H.grib2 2026-05-04 04:05 1.9M
20260504T00Z_MSC_GDPS_WindDir_IsbL-0950_LatLon0.15_PT033H.grib2 2026-05-04 04:05 1.9M
20260504T00Z_MSC_GDPS_WindDir_IsbL-0970_LatLon0.15_PT033H.grib2 2026-05-04 04:05 1.9M
20260504T00Z_MSC_GDPS_WindDir_IsbL-0985_LatLon0.15_PT033H.grib2 2026-05-04 04:05 2.0M
20260504T00Z_MSC_GDPS_WindDir_IsbL-1000_LatLon0.15_PT033H.grib2 2026-05-04 04:05 2.0M
20260504T00Z_MSC_GDPS_WindDir_IsbL-1015_LatLon0.15_PT033H.grib2 2026-05-04 04:05 2.0M
20260504T00Z_MSC_GDPS_WindGust-Max_AGL-10m_LatLon0.15_PT033H.grib2 2026-05-04 04:05 1.8M
20260504T00Z_MSC_GDPS_WindGust-Min_AGL-10m_LatLon0.15_PT033H.grib2 2026-05-04 04:05 2.1M
20260504T00Z_MSC_GDPS_WindGust_AGL-10m_LatLon0.15_PT033H.grib2 2026-05-04 04:05 2.1M
20260504T00Z_MSC_GDPS_WindSpeed_AGL-10m_LatLon0.15_PT033H.grib2 2026-05-04 04:05 1.1M
20260504T00Z_MSC_GDPS_WindSpeed_AGL-120m_LatLon0.15_PT033H.grib2 2026-05-04 04:05 1.2M
20260504T00Z_MSC_GDPS_WindSpeed_AGL-40m_LatLon0.15_PT033H.grib2 2026-05-04 04:05 1.2M
20260504T00Z_MSC_GDPS_WindSpeed_AGL-80m_LatLon0.15_PT033H.grib2 2026-05-04 04:05 1.2M
20260504T00Z_MSC_GDPS_WindSpeed_IsbL-0001_LatLon0.15_PT033H.grib2 2026-05-04 04:05 649K
20260504T00Z_MSC_GDPS_WindSpeed_IsbL-0005_LatLon0.15_PT033H.grib2 2026-05-04 04:05 700K
20260504T00Z_MSC_GDPS_WindSpeed_IsbL-0010_LatLon0.15_PT033H.grib2 2026-05-04 04:05 633K
20260504T00Z_MSC_GDPS_WindSpeed_IsbL-0020_LatLon0.15_PT033H.grib2 2026-05-04 04:05 671K
20260504T00Z_MSC_GDPS_WindSpeed_IsbL-0030_LatLon0.15_PT033H.grib2 2026-05-04 04:05 873K
20260504T00Z_MSC_GDPS_WindSpeed_IsbL-0050_LatLon0.15_PT033H.grib2 2026-05-04 04:05 912K
20260504T00Z_MSC_GDPS_WindSpeed_IsbL-0100_LatLon0.15_PT033H.grib2 2026-05-04 04:05 1.1M
20260504T00Z_MSC_GDPS_WindSpeed_IsbL-0150_LatLon0.15_PT033H.grib2 2026-05-04 04:05 1.0M
20260504T00Z_MSC_GDPS_WindSpeed_IsbL-0175_LatLon0.15_PT033H.grib2 2026-05-04 04:05 1.0M
20260504T00Z_MSC_GDPS_WindSpeed_IsbL-0200_LatLon0.15_PT033H.grib2 2026-05-04 04:05 1.1M
20260504T00Z_MSC_GDPS_WindSpeed_IsbL-0225_LatLon0.15_PT033H.grib2 2026-05-04 04:05 1.1M
20260504T00Z_MSC_GDPS_WindSpeed_IsbL-0250_LatLon0.15_PT033H.grib2 2026-05-04 04:05 1.1M
20260504T00Z_MSC_GDPS_WindSpeed_IsbL-0275_LatLon0.15_PT033H.grib2 2026-05-04 04:05 1.1M
20260504T00Z_MSC_GDPS_WindSpeed_IsbL-0300_LatLon0.15_PT033H.grib2 2026-05-04 04:05 1.1M
20260504T00Z_MSC_GDPS_WindSpeed_IsbL-0350_LatLon0.15_PT033H.grib2 2026-05-04 04:05 1.1M
20260504T00Z_MSC_GDPS_WindSpeed_IsbL-0400_LatLon0.15_PT033H.grib2 2026-05-04 04:05 1.1M
20260504T00Z_MSC_GDPS_WindSpeed_IsbL-0450_LatLon0.15_PT033H.grib2 2026-05-04 04:05 1.1M
20260504T00Z_MSC_GDPS_WindSpeed_IsbL-0500_LatLon0.15_PT033H.grib2 2026-05-04 04:05 1.1M
20260504T00Z_MSC_GDPS_WindSpeed_IsbL-0550_LatLon0.15_PT033H.grib2 2026-05-04 04:05 1.1M
20260504T00Z_MSC_GDPS_WindSpeed_IsbL-0600_LatLon0.15_PT033H.grib2 2026-05-04 04:05 1.1M
20260504T00Z_MSC_GDPS_WindSpeed_IsbL-0650_LatLon0.15_PT033H.grib2 2026-05-04 04:05 1.4M
20260504T00Z_MSC_GDPS_WindSpeed_IsbL-0700_LatLon0.15_PT033H.grib2 2026-05-04 04:05 1.5M
20260504T00Z_MSC_GDPS_WindSpeed_IsbL-0750_LatLon0.15_PT033H.grib2 2026-05-04 04:05 1.6M
20260504T00Z_MSC_GDPS_WindSpeed_IsbL-0800_LatLon0.15_PT033H.grib2 2026-05-04 04:05 1.7M
20260504T00Z_MSC_GDPS_WindSpeed_IsbL-0850_LatLon0.15_PT033H.grib2 2026-05-04 04:05 1.8M
20260504T00Z_MSC_GDPS_WindSpeed_IsbL-0875_LatLon0.15_PT033H.grib2 2026-05-04 04:05 1.5M
20260504T00Z_MSC_GDPS_WindSpeed_IsbL-0900_LatLon0.15_PT033H.grib2 2026-05-04 04:05 1.5M
20260504T00Z_MSC_GDPS_WindSpeed_IsbL-0925_LatLon0.15_PT033H.grib2 2026-05-04 04:05 1.8M
20260504T00Z_MSC_GDPS_WindSpeed_IsbL-0950_LatLon0.15_PT033H.grib2 2026-05-04 04:05 1.8M
20260504T00Z_MSC_GDPS_WindSpeed_IsbL-0970_LatLon0.15_PT033H.grib2 2026-05-04 04:05 1.8M
20260504T00Z_MSC_GDPS_WindSpeed_IsbL-0985_LatLon0.15_PT033H.grib2 2026-05-04 04:05 1.9M
20260504T00Z_MSC_GDPS_WindSpeed_IsbL-1000_LatLon0.15_PT033H.grib2 2026-05-04 04:05 1.9M
20260504T00Z_MSC_GDPS_WindSpeed_IsbL-1015_LatLon0.15_PT033H.grib2 2026-05-04 04:05 1.8M
20260504T00Z_MSC_GDPS_WindU_AGL-10m_LatLon0.15_PT033H.grib2 2026-05-04 04:05 1.3M
20260504T00Z_MSC_GDPS_WindU_AGL-120m_LatLon0.15_PT033H.grib2 2026-05-04 04:05 1.0M
20260504T00Z_MSC_GDPS_WindU_AGL-40m_LatLon0.15_PT033H.grib2 2026-05-04 04:05 959K
20260504T00Z_MSC_GDPS_WindU_AGL-80m_LatLon0.15_PT033H.grib2 2026-05-04 04:05 1.0M
20260504T00Z_MSC_GDPS_WindU_IsbL-0001_LatLon0.15_PT033H.grib2 2026-05-04 04:05 503K
20260504T00Z_MSC_GDPS_WindU_IsbL-0005_LatLon0.15_PT033H.grib2 2026-05-04 04:05 696K
20260504T00Z_MSC_GDPS_WindU_IsbL-0010_LatLon0.15_PT033H.grib2 2026-05-04 04:05 706K
20260504T00Z_MSC_GDPS_WindU_IsbL-0020_LatLon0.15_PT033H.grib2 2026-05-04 04:05 737K
20260504T00Z_MSC_GDPS_WindU_IsbL-0030_LatLon0.15_PT033H.grib2 2026-05-04 04:05 746K
20260504T00Z_MSC_GDPS_WindU_IsbL-0050_LatLon0.15_PT033H.grib2 2026-05-04 04:05 774K
20260504T00Z_MSC_GDPS_WindU_IsbL-0100_LatLon0.15_PT033H.grib2 2026-05-04 04:05 923K
20260504T00Z_MSC_GDPS_WindU_IsbL-0150_LatLon0.15_PT033H.grib2 2026-05-04 04:05 1.0M
20260504T00Z_MSC_GDPS_WindU_IsbL-0175_LatLon0.15_PT033H.grib2 2026-05-04 04:05 1.0M
20260504T00Z_MSC_GDPS_WindU_IsbL-0200_LatLon0.15_PT033H.grib2 2026-05-04 04:05 837K
20260504T00Z_MSC_GDPS_WindU_IsbL-0225_LatLon0.15_PT033H.grib2 2026-05-04 04:05 847K
20260504T00Z_MSC_GDPS_WindU_IsbL-0250_LatLon0.15_PT033H.grib2 2026-05-04 04:05 851K
20260504T00Z_MSC_GDPS_WindU_IsbL-0275_LatLon0.15_PT033H.grib2 2026-05-04 04:05 936K
20260504T00Z_MSC_GDPS_WindU_IsbL-0300_LatLon0.15_PT033H.grib2 2026-05-04 04:05 931K
20260504T00Z_MSC_GDPS_WindU_IsbL-0350_LatLon0.15_PT033H.grib2 2026-05-04 04:05 889K
20260504T00Z_MSC_GDPS_WindU_IsbL-0400_LatLon0.15_PT033H.grib2 2026-05-04 04:05 893K
20260504T00Z_MSC_GDPS_WindU_IsbL-0450_LatLon0.15_PT033H.grib2 2026-05-04 04:05 1.1M
20260504T00Z_MSC_GDPS_WindU_IsbL-0500_LatLon0.15_PT033H.grib2 2026-05-04 04:05 1.1M
20260504T00Z_MSC_GDPS_WindU_IsbL-0550_LatLon0.15_PT033H.grib2 2026-05-04 04:05 1.1M
20260504T00Z_MSC_GDPS_WindU_IsbL-0600_LatLon0.15_PT033H.grib2 2026-05-04 04:05 1.1M
20260504T00Z_MSC_GDPS_WindU_IsbL-0650_LatLon0.15_PT033H.grib2 2026-05-04 04:05 1.2M
20260504T00Z_MSC_GDPS_WindU_IsbL-0700_LatLon0.15_PT033H.grib2 2026-05-04 04:05 1.2M
20260504T00Z_MSC_GDPS_WindU_IsbL-0750_LatLon0.15_PT033H.grib2 2026-05-04 04:05 1.3M
20260504T00Z_MSC_GDPS_WindU_IsbL-0800_LatLon0.15_PT033H.grib2 2026-05-04 04:05 1.4M
20260504T00Z_MSC_GDPS_WindU_IsbL-0850_LatLon0.15_PT033H.grib2 2026-05-04 04:05 1.4M
20260504T00Z_MSC_GDPS_WindU_IsbL-0875_LatLon0.15_PT033H.grib2 2026-05-04 04:05 1.5M
20260504T00Z_MSC_GDPS_WindU_IsbL-0900_LatLon0.15_PT033H.grib2 2026-05-04 04:05 1.5M
20260504T00Z_MSC_GDPS_WindU_IsbL-0925_LatLon0.15_PT033H.grib2 2026-05-04 04:05 1.5M
20260504T00Z_MSC_GDPS_WindU_IsbL-0950_LatLon0.15_PT033H.grib2 2026-05-04 04:05 1.4M
20260504T00Z_MSC_GDPS_WindU_IsbL-0970_LatLon0.15_PT033H.grib2 2026-05-04 04:05 1.4M
20260504T00Z_MSC_GDPS_WindU_IsbL-0985_LatLon0.15_PT033H.grib2 2026-05-04 04:05 1.4M
20260504T00Z_MSC_GDPS_WindU_IsbL-1000_LatLon0.15_PT033H.grib2 2026-05-04 04:05 1.4M
20260504T00Z_MSC_GDPS_WindU_IsbL-1015_LatLon0.15_PT033H.grib2 2026-05-04 04:05 1.3M
20260504T00Z_MSC_GDPS_WindV_AGL-10m_LatLon0.15_PT033H.grib2 2026-05-04 04:05 1.6M
20260504T00Z_MSC_GDPS_WindV_AGL-120m_LatLon0.15_PT033H.grib2 2026-05-04 04:05 961K
20260504T00Z_MSC_GDPS_WindV_AGL-40m_LatLon0.15_PT033H.grib2 2026-05-04 04:05 958K
20260504T00Z_MSC_GDPS_WindV_AGL-80m_LatLon0.15_PT033H.grib2 2026-05-04 04:05 962K
20260504T00Z_MSC_GDPS_WindV_IsbL-0001_LatLon0.15_PT033H.grib2 2026-05-04 04:05 716K
20260504T00Z_MSC_GDPS_WindV_IsbL-0005_LatLon0.15_PT033H.grib2 2026-05-04 04:05 862K
20260504T00Z_MSC_GDPS_WindV_IsbL-0010_LatLon0.15_PT033H.grib2 2026-05-04 04:05 889K
20260504T00Z_MSC_GDPS_WindV_IsbL-0020_LatLon0.15_PT033H.grib2 2026-05-04 04:05 859K
20260504T00Z_MSC_GDPS_WindV_IsbL-0030_LatLon0.15_PT033H.grib2 2026-05-04 04:05 862K
20260504T00Z_MSC_GDPS_WindV_IsbL-0050_LatLon0.15_PT033H.grib2 2026-05-04 04:05 906K
20260504T00Z_MSC_GDPS_WindV_IsbL-0100_LatLon0.15_PT033H.grib2 2026-05-04 04:05 852K
20260504T00Z_MSC_GDPS_WindV_IsbL-0150_LatLon0.15_PT033H.grib2 2026-05-04 04:05 1.0M
20260504T00Z_MSC_GDPS_WindV_IsbL-0175_LatLon0.15_PT033H.grib2 2026-05-04 04:05 808K
20260504T00Z_MSC_GDPS_WindV_IsbL-0200_LatLon0.15_PT033H.grib2 2026-05-04 04:05 836K
20260504T00Z_MSC_GDPS_WindV_IsbL-0225_LatLon0.15_PT033H.grib2 2026-05-04 04:05 904K
20260504T00Z_MSC_GDPS_WindV_IsbL-0250_LatLon0.15_PT033H.grib2 2026-05-04 04:05 906K
20260504T00Z_MSC_GDPS_WindV_IsbL-0275_LatLon0.15_PT033H.grib2 2026-05-04 04:05 932K
20260504T00Z_MSC_GDPS_WindV_IsbL-0300_LatLon0.15_PT033H.grib2 2026-05-04 04:05 925K
20260504T00Z_MSC_GDPS_WindV_IsbL-0350_LatLon0.15_PT033H.grib2 2026-05-04 04:05 939K
20260504T00Z_MSC_GDPS_WindV_IsbL-0400_LatLon0.15_PT033H.grib2 2026-05-04 04:05 885K
20260504T00Z_MSC_GDPS_WindV_IsbL-0450_LatLon0.15_PT033H.grib2 2026-05-04 04:05 885K
20260504T00Z_MSC_GDPS_WindV_IsbL-0500_LatLon0.15_PT033H.grib2 2026-05-04 04:05 1.1M
20260504T00Z_MSC_GDPS_WindV_IsbL-0550_LatLon0.15_PT033H.grib2 2026-05-04 04:05 1.1M
20260504T00Z_MSC_GDPS_WindV_IsbL-0600_LatLon0.15_PT033H.grib2 2026-05-04 04:05 1.1M
20260504T00Z_MSC_GDPS_WindV_IsbL-0650_LatLon0.15_PT033H.grib2 2026-05-04 04:05 1.2M
20260504T00Z_MSC_GDPS_WindV_IsbL-0700_LatLon0.15_PT033H.grib2 2026-05-04 04:05 1.2M
20260504T00Z_MSC_GDPS_WindV_IsbL-0750_LatLon0.15_PT033H.grib2 2026-05-04 04:05 1.3M
20260504T00Z_MSC_GDPS_WindV_IsbL-0800_LatLon0.15_PT033H.grib2 2026-05-04 04:05 1.3M
20260504T00Z_MSC_GDPS_WindV_IsbL-0850_LatLon0.15_PT033H.grib2 2026-05-04 04:05 1.4M
20260504T00Z_MSC_GDPS_WindV_IsbL-0875_LatLon0.15_PT033H.grib2 2026-05-04 04:05 1.5M
20260504T00Z_MSC_GDPS_WindV_IsbL-0900_LatLon0.15_PT033H.grib2 2026-05-04 04:05 1.5M
20260504T00Z_MSC_GDPS_WindV_IsbL-0925_LatLon0.15_PT033H.grib2 2026-05-04 04:05 1.4M
20260504T00Z_MSC_GDPS_WindV_IsbL-0950_LatLon0.15_PT033H.grib2 2026-05-04 04:05 1.4M
20260504T00Z_MSC_GDPS_WindV_IsbL-0970_LatLon0.15_PT033H.grib2 2026-05-04 04:05 1.4M
20260504T00Z_MSC_GDPS_WindV_IsbL-0985_LatLon0.15_PT033H.grib2 2026-05-04 04:05 1.4M
20260504T00Z_MSC_GDPS_WindV_IsbL-1000_LatLon0.15_PT033H.grib2 2026-05-04 04:05 1.4M
20260504T00Z_MSC_GDPS_WindV_IsbL-1015_LatLon0.15_PT033H.grib2 2026-05-04 04:05 1.6M